RH
81 77 63 52 50 47 47 43 44 47 47 56 58 58 64 64 64 63 62 59 56 55 44 31 24 22 20 18 16 15 15 15 15 14 15 17 16 18 21 22 23 25 25 23 23 26 29 28 28 27 26 36 45 45 46 44 39 38 37 41 71 103 107 104 100 90 81 76 86 99 105 103 101 104 105 103 104 100 90 82 75 69 67 66 64 63 63 65 68 70 67 61 55 53 54 55 55
83 74 58 51 51 50 51 48 51 55 56 63 62 62 67 66 66 65 62 59 58 53 37 24 21 20 18 17 17 17 17 16 15 15 16 19 19 20 23 25 26 28 30 30 30 30 32 31 32 31 28 37 50 56 52 45 42 42 41 41 67 103 106 103 101 94 90 82 81 86 97 103 101 101 102 103 105 106 100 92 83 75 70 69 68 65 61 60 63 67 70 69 65 61 59 59 59
76 65 53 51 53 54 58 59 64 68 68 70 69 67 68 68 68 66 63 61 56 44 29 22 21 19 17 17 18 19 18 17 16 17 19 21 23 25 26 28 30 31 33 35 38 38 38 37 37 36 32 38 52 65 63 51 48 47 49 46 58 94 104 100 102 100 94 89 86 83 86 94 101 102 100 101 102 106 105 100 94 87 80 75 72 70 66 61 59 62 66 69 70 68 66 64 62
67 56 51 53 56 59 65 70 73 75 75 75 77 73 70 72 70 67 64 58 48 33 23 21 20 18 17 18 18 20 20 19 19 20 21 23 26 28 29 31 34 35 36 40 45 46 47 46 43 41 38 41 51 67 73 61 51 46 54 57 56 84 104 101 100 102 99 92 88 86 85 85 90 96 98 100 101 103 104 104 102 100 96 89 82 78 75 69 63 61 62 65 68 69 69 69 67
59 54 55 59 64 68 70 73 72 71 72 75 79 75 73 75 70 66 59 49 36 24 21 20 19 18 18 18 19 21 20 21 22 22 24 26 28 31 33 36 39 41 42 45 50 51 53 57 53 48 47 52 55 64 78 75 64 52 53 62 58 72 98 104 100 100 101 99 93 88 88 88 89 91 95 97 100 102 102 103 103 105 106 104 99 93 87 80 75 69 63 61 63 67 71 73 74
57 59 63 68 73 74 73 71 67 67 69 74 77 75 75 74 67 61 49 36 26 20 20 19 19 20 20 19 20 20 20 23 24 26 29 31 33 34 37 40 45 49 50 51 56 56 56 64 65 58 55 64 66 63 76 86 84 70 59 63 59 60 81 97 102 102 99 101 100 95 92 92 92 92 94 95 97 99 99 102 101 103 106 107 107 107 102 93 87 84 77 69 63 64 69 75 79
60 66 71 77 80 78 75 71 67 70 73 78 80 77 73 69 61 50 36 26 21 18 18 19 21 23 23 21 20 19 20 24 27 31 35 38 39 38 41 46 51 55 58 59 63 65 63 69 74 70 64 70 76 71 76 88 95 90 74 70 68 63 67 82 96 101 101 100 99 100 100 98 97 96 96 97 98 98 97 98 99 103 105 105 107 110 111 106 98 92 90 86 79 72 70 72 76
68 75 80 82 82 77 73 71 73 79 82 84 81 75 67 60 50 36 26 21 20 18 19 21 23 25 24 22 20 19 23 27 29 33 38 44 46 44 48 53 55 58 62 65 71 76 76 78 84 84 74 72 79 80 80 85 97 104 93 81 80 78 73 78 88 94 99 102 101 100 100 102 104 101 98 98 100 101 99 96 95 98 101 103 106 107 109 110 106 100 96 96 94 90 84 80 77
77 79 81 79 77 74 74 78 83 86 86 82 72 65 58 48 36 26 22 20 20 20 20 22 24 25 24 22 21 21 26 31 33 35 39 46 51 52 55 59 61 61 64 69 75 84 91 92 95 97 88 77 77 84 86 84 92 104 106 98 91 88 81 79 81 83 86 91 98 102 102 102 103 102 101 101 101 101 101 99 96 94 95 98 101 103 105 106 107 105 103 102 99 99 99 95 92
79 76 76 75 76 79 84 86 86 82 75 66 56 51 44 34 26 22 21 22 22 22 22 24 24 23 23 23 22 25 29 33 36 38 40 45 52 56 58 63 67 66 66 71 77 89 100 104 106 105 102 94 83 83 86 85 89 97 105 108 103 97 91 85 81 78 77 77 81 90 98 101 102 104 104 103 104 104 102 101 101 99 98 98 99 101 102 103 106 106 106 105 102 104 106 105 104
75 73 75 81 85 88 88 82 74 64 54 46 41 37 30 24 21 21 22 23 24 24 23 25 26 24 23 22 21 26 30 34 37 39 41 44 50 56 60 65 69 71 70 71 80 94 100 106 111 106 106 105 99 92 85 83 87 94 101 107 109 105 101 97 94 90 86 83 81 82 88 94 97 100 103 104 105 105 105 104 102 103 102 102 103 103 103 103 105 106 105 105 105 106 107 108 107
78 81 85 90 91 85 77 68 56 45 37 33 31 27 23 21 21 22 23 24 24 24 23 23 25 24 23 21 20 24 28 31 34 36 39 42 47 53 59 66 72 74 75 77 83 95 99 103 107 104 103 102 105 106 97 90 88 92 97 103 107 107 106 103 102 100 97 95 96 96 95 97 96 94 97 100 104 105 104 102 100 101 100 101 104 104 104 103 102 102 103 104 106 106 108 109 109
89 92 92 90 83 72 62 52 41 35 30 24 24 24 23 23 24 24 25 24 23 23 22 22 22 21 21 20 20 23 26 28 29 32 34 37 43 49 55 64 73 78 82 86 87 93 99 105 107 102 102 101 102 105 105 101 96 95 96 101 104 103 106 106 103 101 101 101 101 104 105 107 106 104 101 99 103 107 104 102 102 102 98 97 101 101 102 102 100 100 99 100 101 102 105 106 106
94 92 87 78 68 57 45 37 31 30 26 20 22 25 25 25 25 24 24 23 21 20 20 19 18 17 18 18 19 22 24 26 28 28 29 32 37 45 54 61 70 77 85 92 91 93 99 107 110 104 100 102 102 101 102 100 99 101 100 103 104 100 101 104 105 102 103 104 104 104 104 107 110 110 108 103 105 108 106 104 103 104 103 102 102 103 104 102 98 99 99 98 99 99 101 102 103
89 83 75 64 51 40 31 28 27 28 26 21 23 25 24 23 22 21 20 19 18 17 17 16 14 13 15 18 20 21 23 26 29 29 28 30 34 40 50 60 68 73 81 91 94 96 101 107 110 107 101 100 101 101 101 99 98 101 102 103 103 102 101 101 103 102 103 105 105 105 105 108 110 108 104 99 98 102 105 106 105 103 102 103 103 105 107 104 99 98 98 95 95 95 97 99 102
80 71 60 46 35 29 26 27 27 28 28 24 23 23 21 19 17 17 16 16 15 14 15 14 12 12 16 21 23 23 25 27 30 31 30 31 34 36 41 52 63 71 77 84 91 93 100 108 110 108 105 102 101 100 101 100 100 103 104 102 100 102 103 102 100 100 102 102 102 104 105 107 107 106 104 97 91 90 93 97 101 100 97 96 95 97 100 102 101 99 99 96 94 92 92 93 94
67 53 41 32 28 28 27 28 28 29 27 23 22 19 18 15 14 14 14 15 15 15 14 12 11 14 19 23 26 29 29 29 30 31 31 30 32 34 36 41 51 63 72 78 85 88 94 104 108 106 104 104 101 100 101 101 100 102 105 105 103 102 103 103 101 99 100 100 101 101 102 103 101 102 103 100 97 94 92 92 96 100 100 98 96 96 97 98 99 99 99 99 99 99 97 95 93
47 36 31 28 29 29 26 27 27 26 23 20 17 15 14 13 13 14 15 15 16 17 13 10 13 19 22 25 30 34 35 34 33 31 31 30 30 32 35 39 45 54 63 72 79 83 88 97 104 104 102 103 102 100 101 101 100 100 102 103 103 102 104 103 101 101 100 99 101 100 100 101 101 101 101 102 102 100 99 99 100 103 102 101 100 102 102 101 101 103 103 101 101 103 102 101 99
34 31 31 30 29 28 25 24 23 20 18 16 14 14 14 14 14 15 16 16 16 15 11 11 17 22 24 27 32 35 36 35 33 31 30 30 31 32 36 40 45 50 54 62 73 80 85 88 94 100 103 104 101 101 102 101 100 101 100 101 101 101 103 102 101 102 102 101 100 101 101 99 99 100 101 103 104 103 103 102 102 104 103 100 102 105 105 103 103 104 105 105 103 105 104 103 104
33 32 33 31 28 26 23 21 18 16 15 15 15 16 16 16 16 16 16 16 14 11 11 16 21 23 23 25 29 30 30 29 30 31 32 32 32 33 36 39 42 47 51 55 64 74 80 80 82 88 97 103 102 102 103 101 101 102 100 100 100 100 101 101 102 102 103 103 102 102 101 99 99 99 100 101 103 105 106 104 104 108 107 103 104 107 106 103 102 101 103 102 102 106 105 103 105
36 33 32 29 26 22 19 17 16 15 15 16 17 17 17 15 15 15 14 14 13 12 14 18 19 18 17 17 19 21 22 24 26 30 32 32 32 32 33 35 37 42 49 53 57 62 69 76 80 82 85 91 97 102 103 101 101 102 101 100 101 100 100 101 101 101 101 103 104 104 102 101 101 100 99 98 99 101 103 104 106 110 112 110 109 109 107 105 104 105 105 103 103 104 104 103 103
36 32 28 25 21 19 17 16 16 16 17 17 17 16 15 14 14 13 12 13 13 13 14 14 13 13 13 14 15 17 20 23 25 27 28 28 29 31 31 33 35 37 41 48 53 57 60 65 70 75 79 81 85 92 99 101 102 101 100 100 100 100 100 101 101 101 100 101 101 103 103 103 104 102 100 98 97 97 98 99 100 102 106 108 109 108 108 108 108 108 108 106 105 104 105 105 103
33 27 23 21 18 18 18 18 19 18 18 17 17 15 13 14 14 13 12 13 13 13 12 12 12 13 15 16 17 18 21 24 27 27 27 28 28 29 31 32 34 34 35 38 44 50 55 56 59 64 71 79 82 83 86 94 100 104 104 102 101 101 101 101 101 101 101 101 100 101 102 101 104 105 103 102 98 96 94 93 94 96 97 98 100 102 103 105 105 105 105 104 103 102 102 103 103
27 24 20 19 19 20 21 22 22 21 19 18 17 14 13 15 16 15 14 13 13 12 12 13 14 15 16 17 18 19 21 24 25 26 27 30 31 30 31 31 31 31 33 35 36 39 45 52 56 59 61 67 76 81 81 83 90 98 104 105 105 105 103 102 101 100 101 102 102 103 104 101 102 103 103 105 102 101 99 96 96 95 94 92 92 94 95 97 98 98 100 100 101 101 101 100 101
24 23 21 21 21 22 24 26 25 23 21 20 18 15 13 16 18 17 16 14 14 13 13 14 15 16 17 17 18 18 19 21 21 23 25 27 28 28 28 29 31 32 34 35 35 36 38 42 48 53 57 59 63 71 76 79 82 87 93 98 102 103 103 103 103 103 103 103 102 103 104 103 104 102 102 104 102 103 104 102 103 103 101 99 96 94 93 92 92 92 92 92 94 96 98 98 98
25 25 24 24 26 27 28 28 25 23 22 21 20 16 15 19 21 20 18 17 15 14 15 16 17 17 17 17 17 17 17 19 19 20 22 22 22 23 23 24 27 30 32 33 34 36 35 36 40 45 51 56 60 63 67 72 77 83 88 89 91 91 93 97 99 101 103 104 104 104 103 101 101 102 103 103 100 102 102 100 102 103 103 104 104 103 102 100 99 97 95 92 90 89 90 91 92
28 28 27 29 31 32 31 28 25 24 23 23 21 17 17 21 23 22 20 19 17 15 15 17 17 17 17 18 17 18 18 19 20 21 21 21 21 22 22 22 23 24 25 28 31 33 35 36 39 42 44 47 53 58 62 67 72 79 84 84 83 82 84 89 91 94 96 99 102 105 107 105 103 103 103 103 102 103 104 103 102 101 102 102 102 103 105 104 104 105 107 104 101 97 94 91 89
31 31 32 33 35 35 32 29 27 26 25 25 24 19 20 24 24 24 23 22 20 17 15 16 16 17 18 20 21 21 21 22 23 24 24 25 26 27 27 27 26 26 25 26 26 27 30 33 34 37 40 43 46 49 54 59 65 72 77 78 77 76 77 82 86 88 89 91 93 96 103 106 107 108 108 107 107 109 108 106 104 103 103 103 101 101 102 101 101 103 106 108 109 107 104 101 98
35 35 36 35 35 37 35 33 31 30 30 29 28 24 23 26 25 25 26 26 24 21 19 17 18 19 22 24 25 26 26 28 28 29 30 31 33 34 34 33 32 31 30 29 28 27 26 26 27 29 32 37 42 45 47 49 52 58 64 69 71 71 72 75 78 81 82 83 85 87 92 97 100 104 107 108 108 111 111 107 105 104 103 102 101 101 101 100 99 98 97 98 101 103 103 104 103
39 38 39 38 37 39 39 38 38 37 37 36 34 32 31 29 26 27 27 28 28 27 26 26 26 27 29 30 30 30 29 30 31 33 35 36 37 37 37 36 36 35 34 33 32 32 31 29 28 28 28 29 32 36 40 45 48 49 52 55 58 61 66 71 75 79 82 83 84 83 84 87 91 95 100 104 107 111 111 107 105 103 101 101 100 101 102 103 101 99 97 95 94 95 96 98 100
41 40 41 42 42 42 42 42 43 43 43 42 40 40 41 37 32 31 31 32 33 33 34 35 36 36 36 36 35 34 33 32 33 33 34 35 37 38 39 38 38 38 37 36 35 33 33 32 32 31 30 30 29 29 30 34 38 43 47 49 51 53 55 59 64 70 77 83 86 89 89 88 88 88 89 93 98 103 106 105 104 103 102 102 103 104 105 106 105 102 102 100 96 96 96 95 95
43 44 45 46 46 46 45 45 46 46 47 47 44 44 48 45 39 37 37 39 40 41 42 42 41 40 39 38 38 38 36 35 36 34 33 32 33 35 37 38 39 39 38 37 37 36 35 34 33 32 32 32 32 31 30 30 30 32 35 39 44 47 50 52 55 57 61 66 71 77 82 85 86 87 87 87 88 92 96 99 101 103 104 105 107 108 108 108 107 104 104 105 102 100 98 97 96
49 51 52 51 50 49 48 47 47 47 48 49 46 44 49 49 45 45 47 48 49 48 48 49 47 45 42 41 41 42 41 41 40 39 37 36 35 35 35 36 37 38 39 39 38 37 37 36 35 34 33 32 32 31 31 32 31 31 31 31 33 36 39 43 47 51 53 55 57 58 60 63 67 73 78 81 83 87 91 94 97 99 101 102 104 105 106 107 106 104 103 105 106 104 100 100 101
56 56 55 54 52 52 52 51 50 49 49 53 52 44 46 49 45 48 54 56 56 55 54 54 54 54 53 50 48 47 47 46 46 46 46 46 45 43 41 39 38 38 39 40 41 41 39 39 38 36 35 34 34 32 32 31 31 31 31 32 32 32 32 33 34 37 41 45 49 51 52 53 54 56 59 62 66 70 75 81 86 90 92 94 95 95 97 99 100 101 100 101 103 103 102 102 105
58 57 56 54 52 53 55 55 56 58 57 59 63 55 48 49 45 47 54 59 61 62 60 59 58 58 59 58 57 55 53 52 51 51 51 53 54 53 52 49 47 45 44 43 43 43 44 43 43 41 39 37 37 36 35 34 32 31 30 30 31 31 32 32 32 32 32 33 35 39 42 46 50 52 54 55 55 56 57 60 62 66 69 71 74 77 80 83 86 89 91 92 94 96 98 100 102
58 57 55 55 54 54 56 57 59 64 66 65 70 69 58 50 48 49 53 58 63 65 65 67 66 64 63 62 60 58 57 56 55 56 55 54 55 55 55 55 55 54 54 53 52 50 49 48 48 47 46 44 42 40 39 38 36 35 34 32 31 30 30 30 31 32 33 33 34 33 33 34 37 39 43 47 50 52 53 53 54 54 54 54 56 57 59 62 66 70 74 78 82 87 92 95 97
59 58 57 56 57 58 58 58 59 63 68 69 72 78 70 56 55 55 54 59 64 66 69 74 76 74 70 67 65 63 61 60 60 61 60 58 56 55 55 55 56 56 57 59 60 60 59 57 56 54 52 50 49 47 45 44 43 41 39 38 36 35 33 32 30 30 30 31 32 32 33 34 34 33 33 34 35 38 41 44 47 50 52 54 55 56 56 55 56 58 61 65 70 77 84 90 93
60 58 59 58 59 62 60 58 59 59 64 68 69 79 79 68 65 57 51 60 64 63 69 76 81 84 83 78 72 69 67 66 65 65 64 61 58 55 54 54 55 56 57 59 60 62 64 65 65 64 62 60 58 55 53 51 49 48 46 45 44 42 41 38 36 34 32 31 30 29 30 31 32 33 33 33 32 31 32 32 34 38 42 47 52 56 59 61 62 62 61 61 62 64 68 74 79
67 61 60 60 60 61 61 58 59 58 60 66 68 76 82 83 80 61 50 61 62 59 67 75 80 85 88 86 79 74 73 71 69 68 67 64 62 60 57 55 54 54 54 56 57 59 61 64 66 69 71 72 70 67 64 61 57 54 53 51 50 49 48 47 45 42 40 38 36 33 32 31 30 30 30 31 32 33 34 33 33 33 33 35 38 42 47 52 57 60 62 62 61 61 60 62 64
75 70 66 64 62 61 61 61 61 60 61 66 69 77 87 94 91 77 70 72 67 65 70 73 74 75 77 80 80 77 78 77 73 72 71 70 71 71 70 67 64 61 59 56 56 56 58 59 61 63 67 70 72 74 74 72 70 67 64 61 58 56 54 54 52 51 50 48 45 42 40 37 35 34 32 31 31 31 32 34 35 35 35 34 33 33 34 36 39 44 48 51 55 57 59 61 62
80 78 73 69 65 62 60 59 60 61 63 66 68 75 91 97 92 92 96 91 83 84 83 78 75 73 71 73 78 81 81 81 79 78 77 77 78 78 78 78 76 76 75 72 68 65 62 61 61 62 63 64 64 66 69 71 73 75 75 73 71 68 64 62 60 58 56 54 53 52 49 47 44 42 40 37 36 34 32 32 32 33 34 35 35 35 35 34 34 34 35 37 39 42 45 48 52
83 83 76 70 69 66 63 62 60 61 65 68 68 70 84 95 97 100 104 102 102 104 102 98 93 88 81 76 79 83 81 82 84 85 84 82 81 79 78 78 78 80 80 80 81 79 76 71 69 69 70 71 69 66 63 63 64 67 69 71 73 75 75 74 73 69 64 61 60 59 57 55 54 53 50 48 45 42 40 37 35 33 33 33 33 34 35 36 36 36 36 35 34 34 34 34 35
87 85 77 73 73 72 72 71 67 67 68 70 76 73 70 87 105 104 100 102 107 108 109 110 108 105 100 94 91 89 84 82 82 84 85 84 83 82 79 76 75 76 77 77 79 81 82 81 79 79 79 81 81 78 73 68 66 65 63 63 64 66 70 74 76 76 74 72 72 70 67 65 63 61 60 57 55 53 51 48 45 42 40 38 36 34 34 34 35 35 36 37 37 37 36 35 35
84 82 77 75 74 74 76 74 72 72 69 72 87 80 61 74 100 103 99 101 101 102 107 109 108 109 109 108 107 105 101 95 89 86 85 84 85 85 85 82 77 74 73 74 77 79 81 84 85 85 86 88 89 88 85 81 76 73 70 69 67 64 64 66 67 69 71 73 75 75 75 75 73 70 68 65 63 62 60 59 57 55 54 52 49 46 43 40 38 36 35 35 36 37 37 37 38
79 78 75 74 74 74 74 72 73 72 68 76 91 83 63 68 90 101 101 101 98 99 103 105 107 108 109 110 110 111 111 108 104 101 97 95 95 94 94 95 93 88 84 81 80 80 81 83 87 89 90 91 93 94 94 92 88 83 78 76 76 75 74 74 72 70 70 70 71 73 74 74 74 73 72 73 73 71 70 68 65 64 63 63 62 60 58 55 53 50 47 44 42 40 39 37 37
79 76 73 74 75 75 73 69 71 69 67 77 83 77 68 66 84 105 105 100 102 103 102 104 105 106 107 108 108 108 110 111 110 107 106 106 106 105 104 104 104 103 101 97 93 90 88 86 86 89 92 94 95 97 98 99 98 96 92 86 82 80 81 84 86 86 85 81 78 77 76 75 73 71 70 69 71 73 74 74 74 73 71 70 69 68 68 67 66 64 62 60 57 55 53 50 48
79 76 75 77 76 75 72 70 75 74 72 78 77 72 70 65 76 98 101 97 101 103 104 105 105 104 102 101 102 104 108 111 111 109 108 110 109 108 109 107 105 104 105 106 103 101 99 98 95 91 91 92 92 94 98 101 102 103 104 102 98 92 87 85 87 91 96 97 95 92 88 84 79 77 75 72 70 70 69 70 72 74 75 75 75 75 76 75 74 72 71 69 68 67 65 64 63
81 79 78 78 77 76 72 73 80 78 73 76 73 67 69 68 69 82 90 94 99 102 105 106 104 103 100 98 99 100 104 106 108 109 108 108 108 108 109 108 107 106 105 106 106 104 104 106 106 101 98 95 89 86 90 95 99 102 104 106 108 107 104 98 93 90 93 97 101 103 102 97 90 86 84 81 80 77 72 69 68 69 70 72 74 76 77 79 79 79 78 77 76 75 74 72 71
83 83 81 80 80 77 74 78 83 82 78 75 70 66 68 68 68 75 84 90 97 102 104 104 103 103 100 98 97 96 98 100 103 106 105 105 105 105 106 106 105 105 104 104 104 103 103 104 105 105 106 107 101 93 88 88 91 96 100 103 105 107 108 108 106 102 98 97 97 100 103 103 100 96 92 89 87 83 79 77 76 75 75 75 75 74 74 75 76 77 78 78 79 80 80 79 78
87 89 88 88 89 84 80 82 84 85 83 77 72 70 70 70 72 82 89 92 98 99 99 99 98 97 96 95 95 94 93 93 93 94 94 95 95 95 96 97 97 98 98 98 97 97 97 96 96 98 102 107 108 106 102 97 92 91 92 95 100 104 104 103 105 107 108 107 103 101 102 100 99 98 97 96 95 92 87 84 83 82 82 83 83 82 81 79 77 75 75 76 76 77 77 78 78
88 92 92 92 94 89 84 83 82 80 75 74 76 73 72 73 76 89 98 96 94 90 87 87 85 85 88 87 87 85 81 79 77 76 77 79 81 82 83 84 85 87 89 90 90 90 90 89 86 85 86 91 97 104 109 110 106 101 94 90 92 96 99 98 98 98 102 106 108 108 106 102 99 96 96 97 97 97 95 92 89 87 85 86 86 86 87 87 86 85 83 82 81 80 79 78 77
86 91 92 92 93 92 90 85 82 77 67 69 80 77 76 81 82 93 98 88 82 78 72 70 69 70 70 68 67 65 63 62 61 60 60 59 60 62 64 66 68 70 74 77 78 80 83 84 83 80 76 74 77 84 94 101 106 109 107 102 99 98 97 97 96 93 92 94 97 101 103 103 102 100 98 99 99 98 97 96 95 93 92 90 89 87 87 87 87 87 88 89 90 90 89 88 86
88 89 91 93 91 91 93 87 82 79 69 70 81 80 79 85 87 91 89 76 69 66 61 59 57 56 54 52 49 47 47 47 47 47 48 48 49 51 54 58 61 64 68 71 73 74 76 80 82 82 79 75 71 70 74 80 86 93 99 104 108 109 107 106 105 102 98 93 91 90 92 95 97 99 99 101 103 102 101 100 99 99 98 96 94 92 89 87 84 83 85 87 90 94 95 95 95
96 92 90 92 91 86 87 88 87 84 77 75 83 85 82 86 92 91 81 68 60 57 56 55 52 50 46 42 39 39 40 43 46 49 51 52 53 53 53 54 56 60 61 63 65 65 66 67 69 70 70 69 66 63 62 65 67 72 78 85 93 100 105 109 111 112 109 104 100 96 93 93 93 94 94 95 99 103 104 106 107 107 105 103 101 98 93 89 85 83 83 82 84 86 89 93 96
101 97 92 91 93 87 82 84 85 82 78 73 78 85 83 86 94 89 73 62 57 54 52 49 46 43 40 39 40 41 41 41 42 42 42 41 40 39 37 35 34 35 36 38 40 41 43 44 44 45 45 45 44 42 41 42 43 46 49 54 60 67 75 83 91 100 104 106 108 108 107 106 102 99 97 95 95 97 100 103 106 107 108 108 108 107 104 98 93 89 87 85 83 81 79 81 83
100 98 94 89 88 84 78 78 81 79 75 68 67 72 75 78 77 68 57 52 50 46 44 43 44 46 48 50 51 49 46 42 37 31 27 24 23 23 22 22 21 21 20 21 22 23 24 26 26 27 27 28 27 26 26 25 25 27 28 30 33 35 39 44 50 58 67 76 85 91 98 104 106 108 109 106 103 101 100 99 100 101 103 104 104 105 106 104 101 98 95 93 90 87 83 80 77
98 96 94 88 81 77 73 73 79 82 79 72 60 52 57 62 55 45 42 40 39 41 45 50 55 60 62 60 55 48 42 37 31 25 21 20 20 21 21 22 22 22 23 23 22 22 22 22 23 23 24 24 24 24 24 23 22 22 23 23 24 25 27 28 28 30 33 38 44 50 58 66 73 82 90 94 98 100 102 102 103 105 106 106 106 104 103 101 99 98 97 95 93 90 87 84 81
99 95 90 84 78 76 74 72 75 79 80 74 55 40 44 50 43 37 35 35 41 50 57 61 64 62 58 50 41 34 28 26 25 24 24 24 25 26 27 27 27 27 27 27 28 27 27 26 25 25 25 26 27 26 26 26 25 24 24 24 24 24 25 26 27 27 27 28 29 30 33 35 39 44 49 55 61 66 73 78 83 89 94 99 104 107 108 106 103 101 98 95 94 91 89 87 84
Wind_Speed
61 62 63 62 60 59 60 61 61 63 63 63 66 67 69 71 71 73 74 75 76 77 77 75 72 68 65 60 57 54 51 50 48 46 46 47 47 47 47 46 45 46 45 44 44 43 43 43 44 45 44 43 45 48 51 53 54 58 61 63 64 65 68 70 73 75 77 80 84 86 87 87 87 87 86 86 86 86 86 85 84 84 83 82 81 80 79 79 78 77 77 78 79 79 78 78 77
63 64 64 62 61 61 62 63 63 64 65 66 69 70 72 73 74 76 76 77 78 78 77 75 71 67 62 58 55 52 51 50 47 45 45 47 48 47 46 46 46 46 46 45 44 44 43 43 43 44 43 42 43 44 46 50 53 57 61 63 65 67 69 72 72 74 75 77 81 85 87 87 87 87 87 87 87 87 87 86 86 85 84 83 83 82 81 81 80 79 79 79 80 80 80 80 79
64 65 64 63 62 62 63 64 65 66 68 70 71 73 74 75 77 77 78 79 79 78 76 73 69 65 60 56 53 51 51 49 46 45 45 47 47 47 47 47 46 46 46 46 44 44 43 43 43 43 43 42 42 43 44 47 52 56 59 62 65 68 70 72 72 73 75 76 78 82 86 88 88 88 88 87 88 88 88 87 86 86 86 85 85 84 83 82 82 81 81 81 81 81 81 81 81
65 65 65 63 63 63 64 66 68 69 71 72 74 76 77 78 79 79 80 80 80 77 74 71 67 63 59 55 53 50 50 48 45 46 46 47 47 48 48 47 47 47 47 46 46 45 44 43 43 43 43 42 43 44 45 46 50 54 58 62 66 69 71 72 72 73 74 75 76 77 81 85 88 89 89 88 88 88 88 87 87 87 87 87 87 86 85 85 84 84 83 83 83 83 83 83 83
65 65 66 65 64 66 67 69 71 72 73 74 76 78 80 80 81 82 82 81 79 76 72 68 64 61 58 56 52 50 49 46 46 46 46 47 47 48 48 48 47 47 47 47 47 46 45 43 43 43 42 42 44 44 45 46 47 51 57 63 67 69 71 73 73 73 74 74 75 75 76 80 84 87 89 89 89 89 89 88 88 87 87 87 88 88 88 87 86 86 86 85 85 84 84 84 84
66 66 67 67 68 69 71 72 74 75 76 77 78 80 81 82 83 84 83 80 77 74 70 66 62 60 58 56 52 50 48 46 46 45 45 47 48 49 49 48 48 48 49 48 48 48 46 44 44 43 43 43 44 44 44 45 46 48 54 60 65 68 72 73 74 74 74 74 75 74 74 76 79 82 86 89 89 90 89 89 89 88 88 88 88 89 89 89 89 88 88 87 87 87 87 87 87
67 67 68 70 71 73 74 76 76 77 79 80 81 82 83 83 84 84 82 79 76 73 69 64 61 58 57 55 52 50 47 46 45 45 45 47 49 49 49 49 49 49 50 49 49 50 48 46 45 45 44 45 46 45 45 45 46 48 51 56 62 66 71 73 75 75 75 75 75 75 74 74 75 77 80 84 87 89 89 89 89 89 90 90 89 89 90 90 90 90 89 89 89 89 89 89 89
69 70 71 73 74 76 77 78 79 80 82 83 84 84 84 84 84 83 80 77 74 71 67 63 59 57 56 54 52 50 47 46 46 45 45 47 49 50 50 50 51 51 51 51 50 50 50 48 46 46 46 47 47 47 47 47 47 48 49 53 58 64 69 72 74 76 76 76 76 76 76 76 75 75 76 78 82 85 88 89 90 90 90 90 91 91 91 91 91 91 92 91 91 91 91 91 91
71 72 74 75 77 78 80 81 82 83 83 84 85 84 84 83 83 81 78 75 72 69 66 62 58 56 55 53 51 49 48 47 47 46 46 47 49 50 50 51 52 52 52 52 51 51 50 50 48 48 48 49 49 48 49 48 47 48 50 52 56 62 65 69 72 75 76 77 78 78 77 77 77 76 76 76 77 79 83 86 88 89 90 91 91 92 92 92 92 92 93 93 93 92 92 92 92
74 75 77 78 79 80 81 83 84 84 85 85 85 83 82 82 80 78 75 72 70 67 64 61 58 55 53 52 51 49 49 48 48 47 47 47 49 50 51 52 53 53 54 53 53 52 52 51 50 50 51 50 51 51 51 50 49 48 50 52 54 58 61 64 68 72 74 75 76 77 77 78 77 77 77 76 76 77 78 80 83 85 88 89 91 92 92 93 93 93 93 93 93 93 93 93 93
77 78 79 80 81 82 83 84 85 85 85 84 84 82 81 80 78 75 72 69 67 65 62 59 57 56 54 53 50 49 49 49 49 48 48 48 49 51 52 52 53 54 55 55 54 54 55 53 51 52 52 52 52 52 53 52 51 50 51 53 54 56 57 60 64 68 71 72 73 74 75 77 77 77 77 77 78 79 79 79 80 82 84 86 87 89 91 92 93 93 94 94 94 94 94 94 94
79 80 81 82 83 84 85 86 86 85 85 83 82 81 79 77 75 72 69 67 64 62 61 58 57 57 56 55 51 50 50 50 50 49 49 49 50 51 52 53 54 55 55 56 56 57 57 55 53 54 54 54 54 54 54 54 53 53 53 53 54 56 57 58 61 64 67 69 71 72 73 75 76 77 77 78 79 80 81 81 81 81 81 82 84 86 88 90 91 92 93 93 93 93 94 95 95
81 82 83 83 85 86 86 85 84 84 84 83 80 78 76 74 72 70 67 65 63 61 60 59 57 57 57 57 54 51 51 52 51 51 51 51 52 52 53 54 55 56 56 57 58 59 59 57 56 55 55 55 56 55 56 55 55 55 55 55 55 57 58 60 61 62 63 66 67 69 70 71 73 74 75 75 76 79 80 81 82 82 82 81 82 83 85 86 88 90 91 92 92 92 93 93 94
82 83 84 84 86 86 85 83 82 81 81 81 77 75 73 70 68 66 65 64 62 61 60 59 59 58 58 58 55 53 52 53 53 54 54 53 54 54 55 56 57 57 57 58 59 59 60 60 59 57 57 57 57 57 58 57 56 57 57 57 57 59 61 62 63 62 62 64 65 67 68 69 71 72 73 72 73 74 76 78 79 80 81 81 81 82 82 84 85 86 88 90 91 92 92 92 93
83 84 85 86 86 85 83 82 80 78 78 77 74 72 69 67 65 64 63 62 62 61 60 60 59 58 59 58 56 54 53 53 55 56 57 56 56 56 56 57 58 58 58 59 60 60 60 61 61 60 59 59 59 58 59 60 58 58 59 59 59 60 62 64 65 65 64 64 64 65 66 68 70 72 73 72 72 73 74 75 76 77 78 79 80 81 82 82 83 84 85 87 88 90 91 91 92
84 85 86 85 84 82 81 79 78 76 75 74 71 69 67 65 64 63 62 62 62 61 61 61 59 58 58 57 55 55 55 55 56 58 59 59 58 58 57 58 59 60 60 60 61 61 61 62 62 62 62 62 61 60 60 61 60 61 62 62 61 62 64 66 67 67 67 67 67 66 66 67 69 71 73 73 73 74 75 75 76 77 77 78 79 80 81 82 83 83 83 84 85 86 88 89 90
85 85 83 82 80 79 78 76 74 72 71 70 68 66 66 65 63 62 62 61 61 61 62 60 58 58 56 55 55 56 57 57 58 58 59 60 60 60 59 59 60 61 61 62 62 62 62 63 64 64 64 64 64 63 63 63 62 63 63 64 64 64 66 68 68 68 69 69 70 70 69 69 70 71 72 73 74 74 75 76 76 77 78 78 79 80 81 82 83 83 84 84 84 85 85 86 87
82 81 80 79 77 76 75 72 70 68 67 66 65 65 64 64 63 62 61 61 61 62 62 59 56 57 56 55 56 57 58 59 59 59 59 60 60 61 61 61 62 63 63 63 64 64 64 65 65 66 66 67 67 66 66 66 65 65 65 66 66 67 68 69 69 70 70 71 72 73 73 73 73 74 74 74 75 75 76 76 77 78 78 78 79 80 81 82 82 83 84 84 85 85 86 86 86
78 77 76 75 74 73 71 68 66 64 64 64 64 63 64 63 62 61 61 61 62 63 61 56 55 57 56 56 58 59 60 61 61 61 60 59 59 61 62 63 64 64 64 65 65 66 67 68 68 68 69 70 69 68 69 68 68 68 67 67 68 69 70 71 71 71 72 72 74 74 75 76 76 77 78 78 78 78 78 78 79 79 79 79 80 80 81 81 82 82 84 84 85 85 86 86 87
75 74 73 72 70 68 66 64 63 62 62 62 62 62 63 63 61 61 61 62 64 62 57 55 55 56 56 56 58 60 61 62 62 61 61 61 60 60 62 64 65 65 66 66 66 68 69 70 70 70 71 72 72 71 71 71 71 71 70 70 70 71 72 73 73 73 73 74 75 76 76 77 78 79 80 80 80 80 81 81 81 81 82 82 82 82 82 82 82 83 83 84 84 85 86 86 87
72 71 69 67 66 65 63 62 62 62 61 61 62 62 62 61 60 60 60 61 62 59 54 54 55 56 57 56 57 59 60 60 60 61 62 62 62 62 62 63 65 66 67 68 68 69 70 71 72 73 73 73 74 74 74 74 73 72 73 73 74 74 74 74 75 74 75 76 76 77 77 78 78 79 81 81 82 82 83 83 83 84 84 85 85 84 85 85 84 84 85 85 85 86 86 87 87
68 67 64 63 63 62 62 61 61 61 60 60 61 61 60 58 58 58 58 58 58 56 54 55 56 56 56 56 56 56 57 58 59 60 61 62 62 63 63 63 64 66 67 68 70 71 72 72 73 74 75 75 75 76 76 76 76 75 75 75 75 76 76 77 77 77 76 77 77 78 79 79 80 81 81 82 82 83 84 84 85 85 86 86 87 87 87 87 87 87 87 87 87 87 88 88 88
63 63 61 61 61 61 61 61 60 60 59 60 60 59 57 55 55 57 56 55 56 56 55 55 54 54 54 53 53 53 54 55 57 58 59 60 61 62 63 64 65 66 66 67 69 71 72 74 74 75 75 76 77 78 78 78 78 79 79 78 78 78 79 79 79 79 79 79 79 80 80 81 82 82 83 83 83 84 84 85 86 86 87 88 88 88 88 88 89 89 89 89 89 89 90 90 90
60 60 60 60 59 59 59 59 59 59 58 58 59 57 53 51 53 55 55 54 55 54 53 52 52 52 52 51 51 51 52 53 54 55 56 57 59 60 61 63 64 65 66 68 69 69 71 74 75 75 76 77 78 80 80 80 80 81 81 82 82 82 82 82 81 81 81 81 82 82 83 83 83 84 84 84 85 85 85 85 86 87 88 89 89 89 89 90 90 90 90 90 91 91 91 91 92
58 59 59 59 59 58 58 58 57 57 56 56 57 55 50 48 51 53 53 53 53 52 51 50 50 50 50 50 50 50 50 51 52 53 54 56 58 59 60 61 62 63 66 68 68 68 70 72 73 75 77 78 79 80 81 82 83 83 84 84 85 86 86 85 84 83 83 83 84 85 85 86 86 85 85 86 86 86 86 87 87 88 88 89 90 90 90 90 91 91 92 92 92 92 93 93 93
58 58 59 58 58 57 56 56 55 55 54 54 56 53 47 46 48 50 51 51 51 50 48 47 47 48 48 48 49 49 49 49 49 50 52 54 55 56 57 58 59 62 64 66 67 68 69 70 71 74 76 78 79 80 81 82 84 85 86 88 88 89 88 87 87 87 86 86 86 86 87 87 87 88 88 88 87 87 88 88 89 89 89 90 91 91 91 91 91 92 92 93 94 94 94 95 95
57 57 57 57 56 56 55 55 53 53 52 52 54 50 44 45 46 48 50 50 49 47 45 45 46 46 46 46 46 46 47 46 46 48 49 50 51 52 53 54 56 58 60 62 65 67 67 69 70 73 75 76 79 81 82 83 84 86 88 90 91 91 90 90 90 89 89 89 89 89 89 89 89 90 90 90 90 90 90 91 91 91 91 91 92 92 92 92 92 92 93 93 94 94 95 96 96
56 56 56 55 54 54 54 54 52 52 51 51 53 49 43 44 45 46 48 48 48 46 44 44 44 44 43 43 44 44 43 43 43 44 45 45 47 48 50 52 53 54 56 59 61 63 65 68 69 71 72 74 77 79 81 83 85 86 89 90 92 92 92 92 93 93 92 92 92 92 92 92 93 93 93 93 93 93 94 94 94 94 93 93 93 94 94 94 94 94 94 95 95 95 95 96 96
55 55 55 54 53 52 52 52 51 51 51 51 52 49 44 44 44 44 46 46 47 45 44 43 42 42 41 40 40 40 40 40 40 41 41 41 42 44 47 49 50 51 53 55 58 60 62 65 66 68 69 71 74 77 79 81 84 86 88 90 91 92 92 93 94 95 95 95 95 95 95 96 96 96 96 96 96 96 96 97 96 96 96 96 95 95 95 95 96 96 97 97 97 97 97 97 97
54 54 53 53 52 51 51 50 50 50 50 50 51 49 46 45 45 44 44 44 44 44 43 42 41 40 40 39 39 38 37 37 38 38 39 40 41 43 45 46 46 48 50 52 54 56 58 60 62 64 66 68 70 73 76 78 81 84 86 88 89 91 92 93 94 95 96 97 98 98 99 99 100 100 100 99 99 99 100 99 98 98 98 97 97 97 97 98 98 99 99 99 99 99 99 99 99
53 53 52 52 51 50 50 49 49 49 49 50 49 47 47 47 46 45 44 43 43 42 41 40 39 39 39 40 40 39 38 37 38 39 40 41 42 43 45 45 46 47 48 49 51 53 55 57 59 60 62 64 67 69 71 74 77 80 82 85 87 89 91 92 94 95 97 98 100 100 101 102 103 103 104 103 103 103 103 102 101 101 100 99 99 100 100 100 101 101 101 101 102 102 102 101 101
52 52 52 51 51 50 49 48 48 48 48 49 49 46 47 49 47 45 45 43 42 42 40 39 39 39 40 40 41 41 40 39 40 42 42 43 44 45 46 47 47 48 49 50 51 52 53 55 57 58 59 61 63 66 67 69 72 74 77 80 83 85 88 90 92 94 96 98 100 101 102 103 104 105 106 106 106 106 106 106 105 105 105 105 105 105 105 105 104 104 104 104 104 104 104 103 103
51 51 51 51 50 50 50 49 49 49 49 50 52 48 47 49 47 44 43 43 42 42 41 40 40 40 40 41 41 42 41 41 42 43 44 44 45 46 47 49 49 50 51 52 53 53 54 55 56 57 58 59 61 63 64 66 68 70 72 75 77 80 83 86 89 92 94 96 98 100 101 102 103 104 106 107 107 108 108 109 109 109 110 110 110 110 109 109 109 109 108 108 107 107 106 106 105
50 50 50 50 50 50 51 51 51 51 51 52 55 54 50 51 49 43 42 42 42 42 41 41 40 40 40 40 41 41 41 42 43 44 44 45 46 47 48 48 49 50 51 53 54 55 56 57 58 59 59 59 60 61 62 63 65 67 69 71 72 75 77 81 84 86 89 92 94 97 99 100 100 102 104 105 106 107 108 109 111 111 112 112 113 113 112 112 112 112 112 111 111 110 110 109 109
50 50 50 50 50 49 50 51 51 52 53 53 56 59 55 54 52 45 42 43 42 42 42 42 42 41 40 40 40 40 40 41 42 44 44 45 46 47 48 49 50 50 51 52 54 55 57 58 59 61 61 61 60 61 61 62 63 64 66 68 69 71 73 76 78 80 82 86 89 92 95 97 99 100 101 103 104 105 106 107 109 110 111 111 112 112 113 113 114 114 114 114 114 113 113 112 112
50 50 50 50 50 50 49 50 50 50 52 53 55 60 61 57 53 49 46 44 44 44 44 44 44 43 43 43 43 42 42 41 42 43 44 44 46 47 48 49 50 51 52 52 53 54 56 57 59 61 62 63 63 63 63 63 63 64 66 66 67 68 70 73 74 76 78 81 85 87 89 91 94 96 99 101 103 104 104 105 106 106 107 107 108 109 110 111 112 113 114 114 115 115 115 115 115
50 51 51 51 50 51 51 50 49 49 50 53 53 58 65 62 55 52 49 47 47 46 46 46 46 46 47 47 47 46 46 45 44 44 45 45 45 46 47 49 50 51 52 53 54 54 55 56 58 60 62 62 64 65 65 65 65 66 66 66 67 67 68 70 71 73 76 79 81 83 85 87 89 92 94 96 98 100 101 102 103 103 104 105 106 106 107 108 108 110 111 112 113 114 115 116 117
52 52 52 52 51 52 53 51 51 50 49 52 53 55 64 67 62 56 51 49 49 49 48 48 48 49 50 50 50 50 50 49 48 48 48 48 48 48 48 49 50 51 51 52 53 54 55 57 58 59 61 62 63 64 65 66 67 68 68 68 68 68 69 70 72 73 74 76 77 80 82 83 85 88 89 91 93 94 95 97 98 99 101 103 105 106 107 108 109 110 110 111 112 112 113 114 116
54 54 53 54 53 53 54 54 53 52 50 51 53 53 60 67 68 64 57 52 52 51 51 51 51 51 52 53 52 52 53 54 53 53 52 53 53 52 51 51 51 52 52 52 53 54 55 56 58 59 60 62 64 64 65 65 66 67 68 69 70 71 72 73 73 74 75 75 77 78 79 80 82 84 85 87 89 90 91 93 94 96 98 100 102 103 105 107 108 110 111 111 112 112 112 113 114
56 56 55 55 55 54 54 55 54 54 52 52 53 52 55 62 68 68 65 60 57 55 54 54 54 54 54 55 55 54 56 58 58 57 57 57 57 57 56 55 55 55 55 55 55 56 56 56 57 58 59 61 63 65 66 67 67 67 68 68 69 71 72 74 75 76 77 78 79 79 79 80 81 81 82 83 85 86 88 90 92 93 95 96 98 99 101 103 105 106 108 109 110 111 112 113 114
56 57 57 56 56 56 55 54 54 54 54 54 54 51 50 57 65 67 67 66 64 63 61 60 58 58 57 58 58 57 57 59 61 62 61 61 61 61 60 60 59 59 59 59 59 59 59 59 59 59 59 61 62 64 65 67 67 68 69 70 70 71 72 73 75 77 78 80 80 81 82 82 82 82 83 83 84 85 85 87 88 90 91 93 95 96 98 99 100 102 103 105 107 108 110 111 113
55 58 58 57 57 57 56 55 54 54 54 55 57 54 48 50 59 65 66 67 67 68 69 68 66 64 63 61 61 61 60 60 62 63 64 64 64 64 64 63 63 63 63 63 63 63 63 63 62 62 62 63 64 65 66 67 67 68 69 70 71 72 73 74 75 77 79 79 80 82 83 84 85 85 86 86 86 86 86 86 86 86 88 89 91 93 94 96 97 99 100 102 103 104 106 107 108
55 57 59 58 58 57 57 56 55 54 54 54 59 61 52 46 52 60 64 65 66 68 70 71 71 70 68 66 65 66 65 64 64 65 66 66 67 67 67 67 66 66 66 66 66 67 67 68 67 67 66 66 66 68 68 69 69 69 69 70 71 72 73 74 77 78 79 79 80 81 82 84 85 87 87 88 89 89 89 88 88 87 87 88 89 90 91 92 94 96 98 99 100 101 103 103 103
56 57 59 59 59 58 57 57 57 56 55 53 58 64 58 49 50 56 60 64 66 68 70 71 72 72 72 71 70 69 69 69 69 68 68 69 69 70 70 70 70 70 69 69 69 70 71 71 71 71 71 70 70 71 72 72 72 72 72 72 72 73 73 75 77 78 79 80 81 82 83 84 86 86 87 88 89 90 90 90 90 90 89 90 90 90 91 92 93 93 94 95 96 97 99 99 100
59 59 59 59 60 60 59 59 59 59 56 54 58 64 61 55 53 56 59 63 66 68 70 72 72 72 72 73 73 73 73 73 73 72 72 72 73 73 73 73 73 74 74 74 73 74 74 74 74 74 74 75 75 75 75 76 76 76 76 75 75 76 76 76 77 78 79 80 81 83 84 85 87 88 88 89 89 89 90 90 91 91 91 91 92 92 92 93 94 94 94 94 95 95 96 96 97
62 62 61 62 62 62 62 61 62 62 59 57 59 61 62 58 55 58 61 63 66 68 70 71 71 72 72 73 74 75 75 76 76 75 75 76 76 76 77 77 76 76 77 77 77 78 78 77 78 78 78 78 78 79 79 79 79 79 80 80 79 79 80 80 80 80 81 82 83 84 85 86 87 88 89 90 90 91 91 91 91 91 92 92 92 92 93 94 95 96 96 96 96 96 97 97 96
65 65 65 65 66 66 65 64 66 66 63 61 61 62 63 60 57 60 64 65 67 69 70 71 71 72 73 74 74 75 76 77 78 78 77 77 78 79 79 79 80 80 80 80 81 81 81 81 81 81 81 81 81 82 82 82 82 82 82 83 83 84 84 84 84 84 84 85 85 86 87 88 89 89 90 90 91 92 93 93 93 94 93 93 93 93 94 94 95 96 97 97 97 98 98 99 99
67 67 68 69 69 70 69 68 70 70 67 66 65 64 65 64 61 63 66 67 69 70 71 73 74 74 75 76 76 77 77 78 79 80 81 80 81 81 82 82 83 84 84 84 85 85 85 85 85 85 84 84 84 85 85 85 86 85 85 86 87 87 88 89 89 89 89 89 89 89 90 90 91 92 92 92 93 93 94 94 94 94 95 95 95 96 96 96 97 97 97 97 97 98 99 99 99
69 70 71 72 73 74 72 72 73 73 71 69 68 68 69 67 67 67 68 70 71 72 74 75 76 77 77 78 78 79 79 80 81 83 84 84 84 85 85 86 86 87 88 88 89 89 90 90 90 89 89 89 88 88 88 89 89 89 89 89 90 91 91 92 92 93 93 93 93 94 94 94 94 94 95 95 96 96 96 95 95 95 95 95 96 97 98 98 99 99 99 99 99 99 99 100 100
70 72 74 75 77 78 77 76 76 76 74 72 71 73 73 72 72 73 74 75 76 77 78 78 79 79 80 80 81 81 82 83 83 84 85 86 86 86 87 87 88 88 89 90 90 91 92 93 94 94 93 94 93 93 92 93 93 92 92 93 93 94 94 95 95 96 96 97 97 98 98 98 98 98 98 98 98 99 99 98 98 98 97 97 98 98 98 99 99 99 99 99 100 100 101 101 101
72 73 75 77 79 82 82 81 80 79 76 74 74 76 77 76 77 78 80 80 80 81 81 81 81 81 82 82 83 84 84 84 84 84 84 85 85 86 86 87 87 88 89 90 91 91 92 93 94 95 95 95 96 96 96 96 96 96 96 96 97 97 98 98 99 99 99 100 100 101 101 102 102 102 103 103 102 102 102 101 101 101 101 102 101 101 101 101 100 100 100 100 100 101 101 102 102
73 75 77 79 81 84 86 85 84 83 80 76 76 79 80 81 82 83 84 84 84 84 83 83 84 84 84 84 83 83 83 83 83 83 83 83 83 84 84 85 86 86 88 89 90 91 92 93 94 95 95 95 95 96 97 98 98 99 99 99 100 100 101 102 102 103 103 103 104 104 105 105 105 105 106 107 107 107 106 105 105 105 105 106 106 106 105 105 105 104 103 103 103 103 103 103 103
76 77 79 81 83 85 87 87 86 86 84 80 79 81 82 84 86 87 88 88 87 87 86 86 86 85 85 84 83 83 82 82 82 82 82 83 83 83 83 84 86 86 88 89 90 91 92 93 95 96 97 97 97 96 97 98 99 99 99 100 101 102 103 104 105 106 107 107 107 108 108 109 109 109 110 110 110 110 110 110 110 109 109 110 110 110 110 110 109 109 108 107 107 107 107 106 106
79 81 82 84 86 87 88 88 87 88 87 84 83 84 85 87 90 91 91 91 90 89 88 88 87 86 86 85 84 83 83 83 83 83 84 84 85 86 86 86 87 88 90 91 92 93 94 95 96 98 99 99 100 99 99 100 100 101 100 100 101 102 103 103 105 106 108 109 110 110 111 112 112 113 114 114 114 114 114 114 114 114 114 114 114 115 114 114 114 113 113 112 112 112 112 111 111
82 83 85 86 88 89 89 89 90 90 90 88 86 86 86 89 93 94 94 92 91 90 89 88 88 87 87 87 87 86 86 86 86 86 87 87 87 88 89 89 89 89 90 91 92 93 94 95 96 98 99 100 100 101 101 101 102 102 103 102 102 103 103 104 105 106 107 108 110 111 112 113 113 114 115 116 117 117 118 118 118 118 118 118 118 119 119 119 119 118 117 117 117 117 117 116 116
84 86 88 89 89 90 90 91 92 93 93 92 90 87 86 89 94 94 93 92 91 90 89 89 89 90 91 91 92 92 92 92 92 91 91 90 89 89 90 90 90 90 90 90 91 91 92 93 94 95 96 97 99 99 100 100 101 102 103 103 103 103 104 104 105 106 107 108 109 110 111 113 114 114 115 116 117 118 119 119 120 121 121 122 122 123 123 123 123 123 122 122 122 122 121 121 121
86 89 90 91 91 91 91 92 93 96 96 96 94 90 87 90 93 92 91 91 91 91 91 92 92 93 95 96 97 96 96 95 95 94 93 92 92 91 91 91 91 91 91 92 92 92 93 93 93 94 94 95 96 97 98 99 99 100 101 102 103 103 103 104 104 104 105 106 108 109 110 111 113 114 115 116 117 118 119 119 120 121 122 123 124 125 126 127 127 127 126 126 126 126 126 125 125
90 91 92 92 92 93 93 93 94 96 98 98 98 92 89 91 93 91 91 92 92 93 94 95 96 96 97 98 98 97 95 93 92 92 92 92 92 92 91 92 92 92 92 93 93 94 94 95 95 95 94 95 96 97 97 98 98 99 100 101 101 102 103 103 103 103 104 104 105 106 108 109 110 112 113 114 116 117 118 119 120 121 122 122 123 125 126 127 128 128 129 129 129 129 129 129 129
Wind_Direction
285 286 287 285 282 282 282 283 285 287 289 293 296 298 299 299 301 301 301 302 303 303 302 301 299 298 296 294 291 288 285 280 277 273 270 268 266 263 262 261 261 260 259 257 255 253 252 250 250 248 245 243 244 243 241 240 240 238 237 235 233 233 235 236 236 237 236 235 233 232 232 233 234 234 234 234 233 233 233 235 236 238 238 238 238 239 240 240 240 240 240 240 241 242 242 243 244
286 287 287 284 283 284 285 286 288 290 293 296 297 298 298 299 300 300 301 301 301 301 300 299 298 296 294 292 289 286 282 279 277 273 269 266 264 262 261 260 259 259 259 258 255 253 252 251 250 249 245 241 242 242 241 241 240 238 237 236 233 233 235 236 236 237 237 236 235 234 233 233 234 235 235 235 234 234 234 234 235 237 239 239 239 240 240 241 241 241 241 241 242 242 243 244 245
286 287 286 284 284 286 288 289 291 293 295 297 297 297 298 299 299 300 300 300 300 299 298 297 296 294 292 289 287 284 280 279 277 273 268 265 263 262 260 259 258 258 258 257 256 254 252 251 250 249 246 242 241 241 240 239 239 238 237 236 234 233 235 237 238 238 238 237 237 236 236 235 235 235 236 236 236 235 235 235 235 236 238 239 240 240 241 241 242 242 242 242 243 243 244 244 245
287 286 286 286 287 288 290 291 292 294 295 296 296 297 298 298 298 299 299 298 298 297 296 295 294 292 291 288 285 282 279 277 275 271 267 264 262 261 259 258 258 258 257 256 255 253 252 251 250 249 247 244 242 241 241 239 239 239 237 235 235 234 235 237 238 239 239 239 238 238 238 237 236 236 237 237 238 237 237 236 236 236 237 238 240 241 241 242 242 242 243 243 244 244 245 245 246
287 287 287 288 289 290 291 292 293 294 295 295 296 297 298 298 298 298 297 297 297 296 295 294 293 291 289 287 284 280 277 275 272 269 267 265 262 260 259 258 258 257 257 255 255 253 251 251 251 250 247 246 244 241 242 241 240 241 239 236 235 234 235 236 238 239 240 241 241 240 239 239 238 238 238 238 238 239 238 238 238 237 237 238 239 240 241 242 243 243 243 244 244 245 245 246 246
287 288 289 290 291 292 292 292 293 294 295 296 296 297 297 297 297 297 297 296 296 295 294 293 291 290 288 285 283 279 276 272 270 268 266 264 263 260 259 257 257 256 256 255 254 253 251 250 250 250 247 246 245 243 243 244 242 242 240 239 237 236 235 236 237 239 240 241 242 242 241 240 240 240 240 239 239 239 240 239 239 239 239 239 239 240 241 242 243 243 244 244 244 245 245 246 246
288 289 290 291 291 292 292 293 294 294 295 296 296 296 297 296 296 296 296 296 295 294 293 292 290 288 286 284 281 279 275 271 268 266 264 263 262 260 259 258 256 255 255 254 254 254 252 250 249 249 248 246 246 245 244 244 243 242 241 240 239 238 237 237 238 238 239 241 242 243 243 242 242 241 241 240 240 241 241 240 240 241 241 241 240 240 241 242 243 244 244 245 245 245 245 246 246
289 290 291 291 291 292 292 293 294 295 296 296 296 296 296 295 294 295 295 294 293 292 291 290 288 285 283 281 280 278 275 271 267 264 261 260 260 260 259 258 256 255 254 253 253 253 253 252 250 250 248 246 245 245 244 244 244 244 243 241 240 239 238 238 239 239 239 240 242 243 243 243 243 243 243 242 242 242 242 242 242 242 243 243 242 242 242 243 243 244 245 245 245 245 245 246 246
289 290 291 291 291 292 293 294 294 295 295 295 295 295 294 293 293 294 294 293 292 291 290 288 286 283 281 280 279 277 274 270 267 264 260 258 258 258 258 257 257 255 254 253 252 252 252 252 251 250 249 248 246 245 245 244 243 245 245 243 241 240 240 240 240 240 240 240 241 242 243 244 244 244 245 244 244 244 243 243 243 243 243 244 244 244 243 243 244 244 244 245 246 246 246 246 246
289 290 290 291 292 292 293 294 294 294 294 294 293 293 292 292 292 292 292 291 290 289 288 287 285 283 280 279 277 275 273 270 267 264 261 258 257 256 256 256 256 256 254 253 252 251 251 251 251 251 250 250 249 247 245 244 243 244 246 246 244 243 243 243 243 243 243 243 243 243 243 244 245 245 246 246 246 246 245 245 244 244 244 244 244 245 244 244 244 244 245 245 246 247 247 247 247
289 289 290 291 292 293 293 293 293 293 293 292 292 292 292 292 292 291 290 289 288 287 286 285 284 283 281 278 276 274 271 268 266 264 261 259 256 255 255 254 254 254 254 253 251 250 249 249 250 251 251 251 251 250 248 246 244 244 246 247 247 247 246 245 245 245 245 245 245 245 245 245 246 246 246 246 247 247 247 246 245 245 244 244 244 245 245 245 245 245 246 246 246 247 248 248 248
289 290 291 292 292 292 292 292 292 292 292 292 292 292 292 292 291 291 290 288 287 286 285 284 282 282 281 279 277 274 271 268 266 264 262 259 256 254 253 253 252 253 253 253 251 250 249 248 248 250 251 251 251 251 250 248 247 246 246 247 248 249 249 248 247 246 245 245 245 246 246 246 247 247 246 246 247 247 248 247 247 246 246 245 245 245 245 245 246 246 246 247 247 248 248 249 249
289 290 290 290 290 290 291 291 291 292 292 292 292 292 291 291 290 290 289 287 286 285 285 284 282 281 280 280 278 274 272 270 267 264 262 259 256 253 252 251 250 250 251 251 251 250 249 248 247 249 251 251 251 251 251 249 248 247 247 248 249 250 250 249 248 248 247 247 246 245 245 246 247 247 247 246 246 247 248 248 248 248 248 247 247 247 247 246 246 246 247 247 247 248 248 249 249
289 289 289 289 289 290 290 290 290 290 290 291 291 290 290 289 289 288 287 287 286 285 284 283 282 282 281 279 278 275 273 271 269 266 263 259 256 253 251 250 249 249 249 250 250 249 249 249 247 247 249 251 251 251 251 250 249 248 248 247 248 250 250 250 249 249 249 248 247 246 245 245 246 246 246 246 246 246 247 248 248 248 248 248 248 248 248 247 247 247 247 247 248 248 248 249 250
288 289 289 289 289 290 290 290 290 290 290 291 291 290 289 289 288 287 286 286 285 285 284 283 282 282 281 279 278 276 274 270 268 266 264 261 257 254 251 249 248 248 248 248 249 249 249 249 248 247 248 249 250 251 252 251 250 249 249 247 247 249 250 250 250 249 249 249 248 248 247 246 246 246 246 246 246 246 246 247 248 248 248 248 248 248 249 248 248 248 248 248 248 248 248 249 249
288 288 289 289 289 289 290 290 290 290 291 291 291 291 290 289 288 287 287 286 285 285 284 283 283 282 281 280 279 277 274 269 266 264 263 262 259 256 253 250 248 247 247 247 248 248 248 248 249 248 248 248 249 250 251 251 251 250 250 249 248 248 249 250 250 250 250 250 249 249 248 247 247 247 247 247 247 247 247 247 249 249 249 249 249 249 249 249 249 249 249 249 249 249 249 249 249
287 288 288 288 289 289 289 290 291 291 291 291 291 290 290 289 289 288 288 287 286 285 284 283 284 284 283 281 279 276 273 270 267 264 262 262 261 259 256 253 251 248 247 246 247 247 247 247 247 248 248 248 248 249 250 250 250 250 251 250 249 248 248 249 249 249 250 250 250 250 249 249 248 248 248 248 248 248 248 248 249 249 250 250 251 251 251 250 250 250 250 250 250 250 250 250 250
287 287 287 288 288 289 289 290 291 291 291 291 291 291 291 290 290 290 289 288 287 285 284 286 287 285 283 281 278 275 272 270 268 266 263 262 261 260 258 256 253 251 249 247 246 246 246 246 246 246 247 248 248 248 248 249 249 249 250 250 250 250 249 249 249 249 249 250 250 250 250 250 249 249 249 248 248 248 248 248 249 249 249 250 250 251 251 251 251 251 251 250 250 250 251 251 251
286 286 287 288 289 289 290 291 291 292 292 292 293 293 292 292 292 292 291 290 288 286 287 291 289 284 281 278 275 272 270 269 268 267 266 264 262 260 259 257 255 253 251 249 247 246 245 245 244 244 245 246 247 247 247 248 248 248 248 249 250 250 250 250 250 249 249 249 249 250 250 250 250 250 249 249 248 248 248 248 248 248 249 249 249 250 250 251 251 251 251 251 251 251 251 251 252
286 287 288 289 290 290 291 292 293 293 294 294 294 294 293 293 294 293 292 290 288 289 292 291 285 280 276 273 271 269 268 268 268 268 267 265 263 260 259 258 257 255 253 251 249 247 246 245 244 244 244 245 245 246 247 247 248 248 248 248 248 249 250 250 251 250 250 250 250 250 250 250 250 250 250 249 249 248 248 248 248 248 249 249 249 249 250 250 250 251 251 251 251 251 251 251 251
286 287 289 290 291 292 293 295 295 296 296 296 295 294 294 294 295 294 292 290 289 291 289 283 278 276 274 272 270 269 269 269 268 267 266 265 264 262 260 258 257 256 255 253 251 249 248 247 246 245 244 244 244 245 246 246 247 248 249 249 248 248 249 249 250 250 251 251 251 251 251 251 251 250 250 250 250 249 249 249 249 249 249 249 249 249 250 250 250 251 251 251 251 251 251 251 251
287 289 290 292 293 295 296 297 297 298 297 297 296 295 295 297 296 294 292 290 289 288 284 281 279 279 278 277 275 273 272 271 269 267 266 266 265 263 262 260 258 257 255 254 253 252 250 249 247 246 245 245 245 245 245 245 246 247 248 249 249 249 249 249 249 249 250 250 251 252 252 252 252 251 251 251 251 251 250 250 250 250 250 250 250 249 250 250 250 250 251 251 251 251 251 251 251
289 291 292 294 296 297 298 299 299 299 298 298 296 296 297 299 297 294 292 290 288 286 285 284 283 282 280 279 277 275 273 272 270 269 268 267 266 264 263 261 259 258 256 254 253 253 252 251 250 248 247 246 246 245 245 245 246 246 246 247 248 249 249 249 249 249 249 249 250 251 251 252 252 252 252 252 252 252 252 252 251 251 251 251 251 250 250 250 250 250 251 251 251 252 251 251 251
291 293 294 296 298 299 300 300 300 300 300 299 297 297 300 300 297 293 292 290 288 287 287 285 284 282 279 278 276 274 272 270 269 268 268 267 266 264 263 262 261 260 259 257 255 253 253 252 252 251 249 247 246 246 245 245 245 245 246 246 247 247 247 248 248 249 249 249 250 250 250 250 251 251 251 252 252 252 253 253 253 252 252 252 252 251 251 251 251 251 251 251 251 252 252 252 252
294 295 297 298 299 300 301 301 301 301 301 300 298 299 302 301 296 293 291 290 288 287 287 286 284 281 280 278 275 273 271 270 269 269 268 266 265 265 264 263 262 261 260 259 257 256 254 253 253 252 252 250 249 247 246 246 246 246 246 246 247 247 247 247 248 248 248 249 249 250 250 250 250 251 251 251 251 252 252 252 253 253 253 253 253 253 253 252 252 253 252 252 252 252 252 253 253
296 297 298 299 300 301 301 301 302 302 301 300 298 300 303 300 295 293 291 290 289 288 288 286 284 282 280 279 277 276 274 273 273 272 270 269 269 269 268 266 264 262 261 260 259 258 256 255 253 253 252 252 251 250 249 247 247 246 247 247 247 247 247 248 248 248 248 248 249 250 250 251 251 251 251 251 251 251 252 252 252 252 253 253 253 253 253 253 254 254 254 253 253 253 253 253 253
297 297 298 299 300 301 301 301 302 302 301 301 299 300 303 299 295 293 292 291 290 290 289 287 285 284 283 282 281 280 279 278 277 275 274 274 274 273 271 269 267 265 264 263 262 260 259 257 255 253 252 252 252 251 251 250 249 248 248 247 247 247 247 248 248 249 249 249 249 250 250 251 251 252 252 252 252 252 251 251 251 251 252 252 253 253 253 253 253 254 254 254 254 254 254 254 254
297 297 298 299 300 301 302 302 303 302 302 302 300 302 303 299 296 295 294 293 293 293 292 290 289 289 288 287 286 284 283 282 280 279 279 278 277 276 274 272 270 268 266 264 263 262 260 259 257 255 253 252 252 252 251 251 250 250 249 249 249 248 248 248 248 249 249 249 249 250 250 251 251 251 251 252 252 252 252 252 252 252 252 252 253 253 253 254 254 254 254 254 254 254 254 254 255
296 297 298 299 300 301 302 303 304 304 304 303 303 304 304 300 298 297 296 296 297 298 298 297 296 294 292 289 287 285 284 284 282 281 280 278 277 275 273 272 271 270 268 266 265 264 262 261 260 259 257 255 253 253 252 252 252 251 251 251 251 251 250 249 249 249 249 249 249 250 250 251 251 252 252 252 252 252 252 252 252 252 253 253 253 254 254 254 255 255 255 255 255 255 255 255 255
297 298 299 300 301 301 302 303 304 304 305 304 304 306 306 302 300 299 298 300 301 302 303 302 300 297 294 291 287 284 282 281 279 278 276 274 272 270 270 269 269 269 268 267 266 265 264 264 262 261 260 258 256 255 254 253 253 252 252 252 253 253 253 252 251 251 251 251 250 250 250 250 251 251 252 252 252 252 253 253 253 253 253 254 254 255 255 255 255 255 255 255 255 255 255 255 255
297 298 300 301 301 302 302 303 304 304 304 304 304 306 306 303 302 302 303 304 305 305 305 303 300 296 293 290 288 285 282 279 277 274 271 269 268 267 267 266 265 265 265 265 265 264 264 263 262 261 261 260 259 258 256 255 254 253 253 253 253 253 253 253 253 253 252 252 252 251 251 251 251 251 251 251 252 252 253 253 253 254 254 254 255 255 255 255 256 256 256 256 256 256 256 256 256
298 299 300 301 302 302 302 303 303 303 303 302 302 304 304 302 303 304 306 308 307 306 305 303 299 296 293 291 289 287 284 281 278 275 272 270 268 267 266 265 264 263 263 262 262 262 262 262 262 261 260 260 259 259 258 257 256 255 254 254 253 253 253 253 253 253 253 253 253 253 252 252 252 252 252 252 252 252 253 253 253 254 254 254 254 254 255 255 255 255 255 255 256 256 256 256 257
299 300 301 301 302 302 303 303 303 302 303 302 301 301 301 300 301 305 307 308 307 305 304 302 300 298 295 293 291 289 287 284 281 278 276 274 272 270 268 267 266 266 265 264 263 262 261 261 261 260 259 259 259 259 259 258 258 257 256 256 255 254 254 254 254 253 253 254 254 254 253 253 253 253 253 253 253 253 253 253 253 253 253 253 254 254 254 254 254 254 254 254 255 255 255 256 256
300 300 300 301 302 303 304 305 305 305 305 304 303 301 301 299 299 303 305 305 304 303 302 301 299 297 295 293 292 289 287 285 282 281 279 277 276 274 273 271 270 269 268 267 267 266 264 263 262 262 260 259 259 259 259 259 258 258 257 257 256 256 255 255 255 255 254 254 254 255 255 254 254 253 253 253 253 253 253 253 253 253 253 254 254 254 254 254 254 254 254 254 254 254 255 255 255
300 300 301 302 303 304 305 306 307 307 307 307 305 304 302 300 300 303 303 301 301 300 299 298 296 294 292 291 289 287 285 284 282 280 278 277 276 275 274 274 272 271 270 269 268 268 267 267 266 265 264 262 260 259 259 258 258 258 258 257 257 257 256 256 256 256 256 256 256 255 255 255 255 254 254 254 253 253 253 253 253 253 253 254 254 254 255 255 255 255 255 255 255 255 255 255 255
301 301 302 303 304 305 306 307 308 309 308 308 307 305 303 302 303 304 302 301 299 298 297 295 294 293 291 289 287 286 284 282 281 280 278 276 275 274 274 273 273 272 271 270 269 268 268 268 267 267 266 265 264 262 260 259 258 258 258 258 258 257 257 257 256 256 256 255 255 255 255 256 256 255 255 254 254 254 253 253 253 254 254 254 255 255 255 255 255 256 256 256 255 255 255 255 255
302 302 303 304 305 306 306 306 307 308 309 308 308 306 303 303 304 304 303 302 300 298 296 294 293 293 291 290 288 287 285 283 282 280 279 277 276 275 274 274 273 272 271 271 270 269 269 268 267 267 267 266 265 264 263 262 261 259 259 259 258 258 258 258 257 256 255 255 255 256 256 255 255 255 255 255 255 255 255 255 255 255 255 255 255 255 255 255 255 255 256 256 255 255 255 255 255
303 303 304 304 305 305 305 306 306 307 308 308 308 307 305 305 305 303 303 302 300 298 297 295 294 293 292 290 289 288 287 285 284 282 280 278 277 276 274 273 272 272 271 271 271 270 269 269 268 268 267 267 266 265 264 263 261 261 260 259 259 258 258 258 257 257 256 256 256 256 256 255 255 255 256 256 256 256 257 256 256 256 255 255 255 255 255 255 255 255 255 255 255 255 255 255 255
303 304 305 305 305 305 305 306 306 307 308 308 308 308 306 306 306 305 305 303 300 299 298 296 294 293 291 290 289 288 287 286 285 284 282 281 280 279 277 275 273 272 271 270 269 269 268 268 268 268 268 267 267 266 265 264 262 261 260 259 259 258 258 258 258 258 257 257 257 256 256 256 256 256 256 256 256 256 256 256 256 256 255 255 255 255 255 254 255 255 255 255 255 255 255 256 256
304 305 305 305 305 305 306 306 306 307 307 307 307 307 307 305 305 306 307 305 303 301 298 295 293 291 290 289 289 288 288 287 287 285 284 283 283 282 281 279 277 275 274 272 270 269 268 267 266 266 266 266 266 266 266 265 264 263 262 261 259 258 258 258 257 257 257 257 257 257 257 257 257 257 256 256 256 255 255 255 255 255 255 255 255 255 255 255 255 256 256 256 256 256 256 256 256
304 305 305 306 306 306 306 306 306 306 307 306 305 305 305 304 304 305 306 307 307 305 301 297 295 292 290 290 289 288 287 287 287 286 285 284 283 283 282 281 280 279 277 275 273 272 270 269 268 267 266 266 265 265 265 264 264 263 262 262 261 260 259 258 258 257 257 257 257 257 258 257 257 257 257 256 256 255 255 255 254 255 255 255 255 256 256 256 256 256 256 256 256 256 256 256 256
305 305 305 306 306 307 307 307 307 306 306 306 304 302 301 301 302 303 304 306 307 305 302 300 298 295 293 292 291 289 287 286 285 285 285 284 283 282 281 280 279 278 277 276 275 274 273 271 270 268 267 267 266 266 265 264 264 263 262 261 261 260 260 260 259 259 258 257 257 257 257 258 258 257 257 257 257 257 256 256 256 256 256 256 256 256 256 256 256 256 256 256 256 256 256 257 257
304 304 305 306 306 307 308 307 307 307 306 306 304 300 299 300 298 298 300 302 302 301 300 299 297 296 295 294 293 291 290 288 286 285 284 284 283 282 281 280 278 277 276 275 274 274 273 273 272 270 268 267 266 266 265 265 264 264 263 262 261 260 259 259 259 259 259 259 258 258 258 258 258 257 257 258 258 258 258 258 258 257 257 257 257 257 256 256 256 256 256 256 256 257 257 257 257
303 302 304 305 306 307 307 307 308 307 306 307 303 299 299 299 296 294 296 297 297 297 296 296 295 295 295 295 293 292 291 290 288 287 286 285 284 283 282 281 280 279 277 275 274 273 272 272 272 271 270 268 267 266 265 265 264 264 263 263 263 262 261 260 259 259 259 259 259 259 258 258 258 258 258 258 258 258 258 258 258 257 257 257 257 257 257 257 257 257 257 257 257 257 257 257 257
302 303 304 305 306 307 307 308 308 306 307 307 302 299 299 299 297 295 294 293 294 294 294 294 294 294 294 293 293 292 291 290 290 289 288 287 286 285 284 282 281 280 279 278 276 274 273 272 271 270 270 269 268 267 266 265 265 264 263 262 262 262 261 261 260 260 260 259 259 259 259 258 258 258 258 258 258 258 258 258 257 257 257 257 257 257 257 258 258 258 258 258 257 257 258 258 258
303 304 305 305 306 306 307 308 308 307 308 306 301 299 299 299 299 297 294 293 293 292 292 292 293 292 291 291 290 290 290 290 289 289 288 288 287 286 285 284 283 281 280 279 277 276 275 273 272 271 270 269 268 267 266 265 265 264 264 263 262 261 260 260 260 260 260 260 259 259 259 259 259 259 259 258 258 259 258 258 258 258 257 257 257 257 257 257 257 257 257 258 258 258 258 258 258
304 305 305 305 306 306 307 309 308 308 308 306 302 300 299 298 298 296 294 294 293 292 292 292 291 290 289 289 289 289 289 288 288 287 286 285 285 284 283 282 282 280 279 278 277 276 275 274 272 271 270 269 268 267 266 265 264 264 263 263 263 262 261 260 260 259 259 259 259 259 259 260 260 260 260 260 259 259 259 258 258 258 258 258 257 257 257 257 257 257 257 257 258 258 258 258 258
306 306 306 306 307 307 308 310 309 308 308 306 304 302 300 299 298 296 295 294 293 293 292 291 290 290 289 289 288 287 287 286 286 285 284 283 282 281 280 279 279 278 277 277 276 275 274 273 272 270 269 268 267 266 266 265 264 264 263 262 262 262 262 262 261 261 260 259 258 258 258 259 259 259 259 260 259 259 259 259 259 258 258 258 258 258 257 257 257 257 257 257 258 258 258 258 258
307 308 307 308 308 308 309 310 308 308 307 306 304 303 301 301 300 298 296 295 294 293 292 291 290 290 289 288 287 286 286 285 284 284 283 282 281 280 279 278 277 276 276 275 274 274 273 272 271 270 269 268 266 265 265 264 264 263 263 262 261 261 260 260 261 261 261 261 260 260 259 259 258 258 258 258 258 258 258 258 258 258 258 258 258 258 258 257 257 258 258 258 258 258 258 258 258
308 309 309 309 309 308 309 309 308 307 306 306 305 304 303 303 301 300 298 297 295 294 292 292 291 290 289 289 288 287 285 284 283 282 282 281 280 280 279 278 277 276 275 274 273 272 272 271 271 270 269 268 267 266 265 264 263 262 262 261 261 261 260 260 259 259 260 260 260 260 260 260 260 259 259 258 257 257 257 257 257 257 257 257 257 257 257 257 257 257 258 258 258 258 258 258 258
309 309 309 309 309 308 309 308 307 306 306 306 306 305 304 304 303 301 299 298 296 295 294 293 292 291 290 289 288 287 285 284 283 283 282 281 280 280 279 278 278 277 276 276 275 274 273 272 271 271 270 269 268 267 266 265 264 263 262 261 261 260 260 260 259 259 258 258 259 259 260 260 260 261 261 260 259 259 258 257 257 257 256 256 256 256 256 256 256 256 257 257 257 257 257 258 258
309 309 309 309 308 308 308 308 307 306 306 307 307 305 305 304 303 301 299 298 297 296 295 295 294 292 291 289 288 287 286 285 284 283 282 281 280 280 279 279 278 277 277 276 276 275 275 274 273 273 272 270 269 268 267 266 265 264 263 262 262 261 260 260 259 259 258 258 257 257 258 258 259 259 260 260 261 261 260 259 258 258 257 257 256 256 256 256 255 255 256 256 256 256 256 257 257
310 309 309 308 308 307 307 307 307 306 306 307 306 305 305 304 302 301 299 298 298 298 297 296 295 293 292 291 290 289 288 287 286 285 284 283 282 281 280 279 278 278 277 276 276 275 274 274 273 273 272 272 271 269 268 267 266 265 264 263 262 262 261 261 260 260 259 259 258 258 257 257 257 258 258 259 259 260 260 260 260 260 259 258 258 257 256 256 256 255 255 255 255 255 255 255 256
310 309 309 308 308 307 307 307 306 306 305 306 306 305 305 304 302 301 300 299 299 299 298 297 296 294 293 292 291 290 288 287 286 286 285 284 283 282 280 279 278 277 276 276 275 275 274 273 273 273 272 272 271 271 270 269 268 267 265 264 263 262 261 261 260 260 260 260 259 259 259 258 258 258 258 258 258 258 259 259 260 260 260 260 260 259 258 258 257 256 256 255 255 254 254 254 255
309 309 308 308 307 307 307 306 306 305 305 305 305 305 305 304 302 301 300 300 299 299 298 297 296 295 294 293 292 291 290 289 288 287 286 285 284 283 282 281 280 278 277 276 275 275 274 274 273 273 272 272 272 271 271 270 269 269 268 266 265 263 262 261 260 260 259 259 259 259 259 259 259 258 258 258 258 258 258 258 258 259 259 259 260 260 260 260 259 258 257 257 256 255 255 254 254
309 308 308 308 307 307 307 306 306 306 306 305 305 304 305 303 301 300 300 300 299 299 299 298 298 297 297 296 295 294 294 293 292 291 290 288 287 286 285 284 283 282 280 279 277 276 275 274 273 272 272 272 271 271 271 270 270 269 269 268 267 266 264 263 262 261 260 259 259 258 258 259 259 259 259 258 258 258 258 257 257 258 258 258 259 259 260 260 260 260 260 259 258 258 257 256 256
309 309 308 308 307 307 306 306 306 306 306 305 304 304 305 303 300 300 301 300 300 301 300 300 299 298 297 296 295 295 294 293 292 292 291 290 289 287 286 285 284 283 282 281 280 279 277 276 274 273 272 272 271 271 270 270 269 269 268 268 268 267 266 265 264 263 262 261 261 260 259 258 258 258 258 258 259 259 258 258 258 257 257 257 257 258 258 258 259 260 260 260 260 259 259 259 258
309 308 308 307 307 306 306 306 306 305 305 305 304 305 306 303 302 302 302 301 301 301 300 299 298 297 295 294 293 293 292 291 290 290 289 289 288 287 286 285 284 283 282 281 280 280 279 278 276 275 274 273 272 272 271 270 269 269 268 268 267 267 267 266 265 264 263 262 262 261 261 260 259 259 258 258 258 258 258 259 259 259 258 258 258 257 257 258 258 258 259 259 259 259 260 260 260